Location: Rancho Del Sol Observatory
(38.7214°N, 120.6350°W)
Time: 03:02:45
(UTC-08:00)

Courier 1B Rocket - Pass Details

Date: 29 January 2020
Orbit: 920 x 1202 km, 28.2° (Epoch: 25 February)

Event Time Altitude Azimuth Distance (km) Brightness Sun altitude
Rises 07:39:33 0° 202° (SSW) 4,083 8.3 4.2°
Reaches altitude 10° 07:44:29 10° 176° (S) 3,107 8.1 5.0°
Maximum altitude 07:47:30 13° 152° (SSE) 2,892 8.6 5.6°
Drops below altitude 10° 07:50:29 10° 129° (SE) 3,066 9.9 6.1°
Sets 07:55:15 0° 103° (ESE) 3,977 9.9 6.9°
